www.pogodaiklimat.ru

Погода и климат >> Архив погоды >> Буркина-Фасо >> Dedougou


ПОГОДА в Dedougou

  • Прогноз погоды в Dedougou
  • Монитор погоды в Dedougou
  • Климат города

АРХИВ ПОГОДЫ в Dedougou

Время (UTC), дата Ветер
(напр.,м/с)
 
Видим.   Явления Облачность Т
(С)
Тd
(С)
f
(%)
Тe
(С)
Тes
(С)
Комфортность P
(гПа)
Po
(гПа)
Тmin
(С)
Tmax
(С)
R
(мм)
R24
(мм)
S
(см)
21 18.04 штиль 0 15 км 9/0
[Ci sp]
+35.3 +6.0 16 +33 +33 жарко 1008.4 975.7
00 19.04 ЮВ 2 10 км 9/0
[Ci sp]
+32.6 +3.3 16 +30 +30 жарко 1008.9 976.3
06 19.04 ЮЗ 1 10 км 9/0
[Ci sp]
+28.7 +12.0 36 +30 +30 жарко 1009.4 976.7 +28.7
09 19.04 ЮЗ 4 15 км 9/0
[Ci sp]
+34.0 +20.7 46 +41 +46 опасность
перегрева
1012.0 978.0
12 19.04 З 2 15 км 9/1 600 м
[Sc Ci sp]
+38.0 +17.6 30 +41 +57 опасность
перегрева
1009.7 977.1
15 19.04 З 2 15 км 9/3 600 м
[Cu Sc Ci sp]
+40.5 +13.9 21 +41 +48 опасность
перегрева
1006.9 974.4
18 19.04 штиль 0 15 км 9/3 600 м
[Cu Sc Ac cuf Ci sp]
+39.5 +14.6 23 +40 +40 очень
душно
1006.0 973.4 +41.6
21 19.04 Ю 1 10 км 9/0
[Ac trans Ci sp]
+35.8 +13.8 27 +37 +37 душно 1007.3 974.8
00 20.04 Ю 1 10 км 9/0
[Ci sp]
+32.6 +19.2 45 +38 +38 очень
душно
1008.0 975.5
03 20.04 ЮЗ 2 10 км 9/0
[Ci sp]
+31.6 +17.7 44 +36 +36 очень
душно
1007.1 974.6
06 20.04 ЮЗ 1 15 км 9/0
[Ac trans Ci sp]
+29.1 +19.1 55 +35 +35 очень
душно
1007.6 974.9 +29.1
09 20.04 З 3 15 км 9/0
[Ci sp]
+33.2 +22.7 54 +43 +50 опасность
перегрева
1009.0 976.4
12 20.04 штиль 0 15 км 9/3 600 м
[Cu Sc Ci sp]
+38.0 +18.8 33 +42 +60 опасность
перегрева
1007.8 975.2
15 20.04 В 2 15 км 9/4 600 м
[Cu Sc Ci sp]
+39.6 +14.5 23 +40 +47 очень
душно
1004.6 972.2
18 20.04 ЮЗ 3 15 км 9/3 600 м
[Cu Sc Ac trans Ci sp]
+37.0 +17.6 32 +40 +40 очень
душно
1004.5 971.9 +41.0
21 20.04 СЗ 2 10 км 9/0
[Ac trans Ci sp]
+34.5 +17.7 37 +38 +38 очень
душно
1006.9 974.3
00 21.04 ЮЗ 3 10 км 9/0
[Ci sp]
+32.0 +16.5 39 +35 +35 очень
душно
1006.9 974.4
03 21.04 ЮЗ 3 10 км 9/0
[Ci sp]
+30.0 +18.1 49 +35 +35 очень
душно
1005.7 973.2
06 21.04 СЗ 3 15 км 9/0
[Ci sp]
+28.5 +18.6 55 +34 +34 очень
душно
1008.7 975.9 +28.5
09 21.04 штиль 0 15 км 9/0
[Ci sp]
+32.5 +19.9 47 +38 +50 очень
душно
1009.0 976.2
12 21.04 штиль 0 15 км 9/0
[Cs]
+38.5 +16.4 27 +40 +65 опасность
солнечного
удара
1007.4 974.8
15 21.04 В 1 15 км 9/0
[Ci sp]
+41.0 +12.2 18 +40 +53 опасность
солнечного
удара
1004.3 971.9
18 21.04 штиль 0 15 км 9/1 600 м
[Sc Ci sp]
+39.9 +15.7 24 +41 +42 опасность
перегрева
1004.6 972.1 +42.1
21 21.04 В 1 10 км 9/0
[Ac trans Ci sp]
+36.5 +10.7 21 +36 +36 очень
жарко
1006.6 974.0
00 22.04 ЮЗ 3 10 км 9/0
[Ac trans Ci sp]
+35.0 +15.5 31 +37 +37 очень
душно
1007.2 974.9
03 22.04 Ю 2 10 км 9/0
[Ci sp]
+32.6 +16.1 37 +35 +35 душно 1006.2 973.9
06 22.04 ЮЗ 3 15 км 9/0
[Ci sp]
+30.5 +19.2 51 +36 +36 очень
душно
1007.1 974.5 +30.5
09 22.04 З 3 15 км 9/0
[Ci sp]
+33.9 +20.3 45 +40 +47 очень
душно
1008.7 976.1
12 22.04 ЮЗ 4 15 км 9/0
[Ci sp]
+38.8 +19.7 33 +44 +56 опасность
перегрева
1007.6 975.2
15 22.04 ЮЗ 3 15 км в посл. час дождь 9/8 600 м
[Cb cap Ci sp]
+38.0 +17.1 29 +41 +42 опасность
перегрева
1005.3 972.8
18 22.04 штиль 0 15 км {дождь} 9/1 600 м
[Sc Ac trans Ci sp]
+36.0 +18.7 36 +40 +41 очень
душно
1005.7 973.0 +42.3 0.7
21 22.04 штиль 0 10 км 9/0
[Ac trans Ci sp]
+32.2 +19.7 48 +38 +38 очень
душно
1007.2 974.4
00 23.04 штиль 0 10 км 9/0
[Ci sp]
+30.2 +19.1 51 +36 +36 очень
душно
1007.8 975.2
03 23.04 ЮЗ 3 10 км 9/0
[Ci sp]
+30.2 +16.6 44 +34 +34 очень
душно
1006.5 973.9
06 23.04 штиль 0 15 км 9/0
[Ac trans Ci sp]
+28.5 +18.2 54 +33 +33 очень
душно
1008.2 975.4 +28.5 0.7
09 23.04 ЮЗ 4 15 км 9/0
[Ci sp]
+33.0 +18.7 43 +38 +43 очень
душно
1009.8 976.9
12 23.04 З 2 15 км 9/0
[Ci sp]
+39.0 +18.2 30 +43 +61 опасность
перегрева
1007.8 975.2
15 23.04 ЮВ 2 15 км 9/3 600 м
[Cu Sc Ci sp]
+41.5 +14.3 20 +42 +49 опасность
перегрева
1004.6 972.2
18 23.04 В 2 15 км 9/3 600 м
[Cu Sc Ci sp]
+40.0 +10.3 17 +39 +39 очень
жарко
1004.8 972.3 +43.0
21 23.04 Ю 1 15 км 9/0
[Ci sp]
+36.1 +15.0 28 +37 +37 душно 1006.3 973.7
00 24.04 ЮЗ 2 10 км 9/0
[Ci sp]
+33.0 +13.2 30 +34 +34 очень
жарко
1007.2 974.7
03 24.04 ЮЗ 4 10 км 9/0
[Ci sp]
+31.2 +17.0 43 +35 +35 очень
душно
1006.0 973.7
06 24.04 З 4 15 км 9/0
[Ci sp]
+30.0 +19.5 53 +36 +36 очень
душно
1008.0 975.4 +30.0
09 24.04 ЮЗ 5 15 км 9/0
[Ci sp]
+33.5 +21.0 48 +41 +45 опасность
перегрева
1009.8 977.2
12 24.04 ЮЗ 3 15 км 9/0
[Cs]
+38.8 +19.5 33 +44 +59 опасность
перегрева
1008.2 975.7
15 24.04 Ю 1 15 км 9/4 600 м
[Cu Sc Ci sp]
+41.5 +12.8 18 +41 +48 опасность
перегрева
1005.1 972.7
18 24.04 штиль 0 15 км 9/1 600 м
[Sc Ac trans Ci sp]
+40.4 +15.6 23 +42 +42 опасность
перегрева
1004.7 972.3 +42.5
21 24.04 Ю 1 10 км 9/0
[Ac trans Ci sp]
+36.5 +14.4 27 +38 +38 очень
душно
1006.6 974.0
00 25.04 ЮЗ 2 10 км 9/0
[Ci sp]
+34.0 +14.2 30 +35 +35 очень
жарко
1006.1 973.8
03 25.04 ЮЗ 4 10 км 9/0
[Ac trans Ci sp]
+32.0 +16.5 39 +35 +35 очень
душно
1005.5 973.2
06 25.04 ЮЗ 4 15 км 9/0
[Ac trans Ci sp]
+31.0 +20.0 52 +37 +37 очень
душно
1006.8 974.4 +31.0
09 25.04 ЮЗ 5 15 км 9/0
[Ci sp]
+34.0 +21.8 49 +42 +47 опасность
перегрева
1008.8 976.3
12 25.04 СЗ 3 15 км 9/1 600 м
[Sc Ci sp]
+39.4 +19.5 32 +44 +58 опасность
перегрева
1007.5 975.1
15 25.04 Ю 2 15 км 9/4 600 м
[Cu Sc Ci sp]
+41.3 +13.2 19 +41 +48 опасность
перегрева
1004.4 972.1
18 25.04 СЗ 1 15 км 9/1 600 м
[Cb cap Ci sp]
+41.2 +15.0 22 +42 +42 опасность
перегрева
1003.4 971.1 +43.6

 

Местоположение метеостанции Dedougou (Буркина-Фасо): широта 12.47 долгота -3.48 высота над уровнем моря 300 м.

В архиве по умолчанию представлена погода в Dedougou за последнюю неделю. Архивные данные за месяц целиком и за предыдущие месяцы, начиная с января 2011 года, Вы можете получить, выбрав интересующий диапазон дат из раскрывающегося списка и нажав кнопку "Ввод!".


*Определитесь, кто Вы:
робот инопланетянин человек

Внимание! Время в таблицах - всемирное. Для получения местного времени необходимо прибавить поправку, которая в Dedougou равна 0 ч.

Смотрите также архив погоды в соседних городах и на ближайших метеорологических станциях:

Погода в Boromo (Буркина-Фасо) (100 км)
Погода в Ouahigouya (Буркина-Фасо) (168 км)
Погода в Bobo-Dioulasso (Буркина-Фасо) (171 км)
Погода в San (Мали) (175 км)
Погода в Ouagadougou (Буркина-Фасо) (213 км)
Погода в Koutiala (Мали) (216 км)
Погода в Mopti (Мали) (238 км)
Погода в Gaoua (Буркина-Фасо) (240 км)
Погода в Sikasso (Мали) (270 км)
Погода в Wa (Гана) (290 км)

Пояснения к столбцам:

Ветер - указаны скорость ветра в м/с - средняя за 10 мин, порывы в срок и между сроками (в фигурных скобках) и направление, откуда дует ветер: С - северный, СВ - северо-восточный, В - восточный, ЮВ - юго-восточный, Ю - южный, ЮЗ - юго-западный, З - западный, СЗ - северо-западный.
Видимость - горизонтальная дальность видимости в метрах или километрах. При видимости от 1 до 10 км при отсутствии осадков обычно наблюдается дымка, при ухудшении видимости до 1 км и менее - туман. В сухую погоду видимость может ухудшаться дымом, пылью или мглою.
Явления - указаны атмосферные явления, наблюдавшиеся в срок или в последний час перед сроком; фигурными скобками обозначены явления, наблюдавшиеся между сроками (за 1-3 часа до срока); квадратными скобками обозначены град или гололедные отложения с указанием их диаметра в мм.
Облачность - указаны через наклонную черту общая и нижняя облачность в баллах и высота нижней границы облаков в метрах; квадратными скобками обозначены формы облаков: Ci - перистые, Cs - перисто-слоистые, Cc - перисто-кучевые, Ac - высококучевые, As - высокослоистые, Sc - слоисто-кучевые, Ns - слоисто-дождевые, Cu - кучевые, Cb - кучево-дождевые. Подробнее классификацию облаков см. в Атласе облаков (PDF).
T - Температура воздуха - температура, измеренная на высоте 2 м над землей.
Td - Температура точки росы - температура, при понижении до которой содержащийся в воздухе водяной пар достигнет насыщения.
f - Относительная влажность воздуха - влажноcть воздуха, измеренная на высоте 2 м над землей.
Te - Эффективная температура - температура, которую ощущает одетый по сезону человек в тени. Характеристика душности погоды. При расчете учитывается влияние влажности воздуха и скорости ветра на теплоощущения человека.
Tes - Эффективная температура на солнце - температура, которую ощущает человек, с поправкой на солнечный нагрев. Характеристика знойности погоды. Зависит от высоты солнца над горизонтом, облачности и скорости ветра. Ночью, в пасмурную погоду, а также при ветре 12 м/с и более поправка равна нулю.
P - Атмосферное давление - приведенное к уровню моря атмосферное давление.
Po - Атмосферное давление - измеренное на уровне метеостанции атмосферное давление.
Tmin - Минимальная температура - минимум температуры воздуха на высоте 2 м над землей.
Tmax - Максимальная температура - максимум температуры воздуха на высоте 2 м над землей.
R - Количество осадков - Количество выпавших осадков за период времени, мм. При наведении курсора мыши на число - период времени, за который выпало указанное количество осадков.
R24 - Количество осадков - Количество выпавших осадков за 24 часа, мм.
S - Снежный покров - Высота снежного покрова, см. При наведении курсора мыши на число - состояние снежного покрова и степень покрытия местности в баллах.